Simultaneous Nadir Overpasses (SNOs) Predictions

Prediction of SNOs between GOES-15 and METOP-B Satellite Orbit:

Table of predicted SNOs for the next 14.0 days since TLE Epoch: 8/31/2024
Index Date Time (GOES-15) GOES-15 Lat,Lon METOP-B Lat,Lon Distance(km) Time Diff (sec)
1 09/01/2024 05:28:40 -0.21, 61.45 0.67, 57.44 455.85 80
2 09/02/2024 05:10:41 -0.19, 61.44 -0.43, 62.43 114.10 80
3 09/03/2024 17:27:01 0.22, 61.54 -0.61, 57.82 423.96 80
4 09/04/2024 17:09:01 0.20, 61.53 0.50, 62.81 145.97 80
5 09/06/2024 05:25:14 -0.23, 61.39 0.48, 58.23 360.88 80
6 09/07/2024 05:07:14 -0.21, 61.39 -0.64, 63.22 208.91 80
7 09/08/2024 17:23:33 0.24, 61.50 -0.42, 58.61 329.67 80
8 09/09/2024 17:05:34 0.22, 61.50 0.70, 63.60 239.66 80
9 09/11/2024 05:21:45 -0.24, 61.37 0.30, 59.03 268.30 80
10 09/12/2024 05:03:46 -0.22, 61.38 -0.83, 64.01 300.67 80
11 09/13/2024 17:20:05 0.25, 61.50 -0.21, 59.41 238.93 80
